Change the Weather History Date:

Sunday, January 27, 2013

  Actual Average Record
Temperature  
Mean Temperature 28 °F -  
Max Temperature 34 °F 32 °F 60 °F (2002)
Min Temperature 21 °F 16 °F -5 °F (2000)
Degree Days  
Heating Degree Days 38    
Moisture  
Dew Point 23 °F    
Average Humidity 78    
Maximum Humidity 89    
Minimum Humidity 64    
Precipitation  
Precipitation 0.26 in - - ()
Sea Level Pressure  
Sea Level Pressure 30.21 in    
Wind  
Wind Speed 10 mph (SE)    
Max Wind Speed 23 mph    
Max Gust Speed 36 mph    
Visibility 5 miles    
Events Rain , Snow , Thunderstorm    
Averages and records for this station are not official NWS values.
T = Trace of Precipitation, MM = Missing Value Source: NWS Daily Summary

Daily Weather History Graph

Daily Weather History Graph

Search for Another Location

Airport or City:

Trip Planner

Search our weather history database for the weather conditions in past years. The results will help you decide how hot, cold, wet, or windy it might be!

Date:

Astronomy

Jan. 27, 2013 Rise Set
Actual Time 8:03 AM EST 5:54 PM EST
Civil Twilight 7:33 AM EST 6:24 PM EST
Nautical Twilight 6:59 AM EST 6:58 PM EST
Astronomical Twilight 6:26 AM EST 7:31 PM EST
Moon 6:49 PM EST (1/27) 7:54 AM EST (1/27)
Length of Visible Light 10h 50m
Length of Day
9h 50m
Full, 100% of the Moon is Illuminated
Jan 27
Full
Feb 3
Last Quarter
Feb 10
New
Feb 17
First Quarter
Feb 25
Full

Hourly Weather History & Observations

Time (EST) Temp. Windchill Dew Point Humidity Pressure Visibility Wind Dir Wind Speed Gust Speed Precip Events Conditions
12:53 AM 21.9 °F 14.5 °F 16.0 °F 78% 30.42 in 10.0 mi ESE 5.8 mph - N/A   Mostly Cloudy
1:53 AM 21.0 °F 16.2 °F 16.0 °F 81% 30.42 in 10.0 mi SE 3.5 mph - N/A   Scattered Clouds
2:53 AM 23.0 °F 15.8 °F 18.0 °F 81% 30.42 in 10.0 mi SSE 5.8 mph - N/A   Overcast
3:53 AM 24.1 °F 17.0 °F 18.0 °F 77% 30.43 in 8.0 mi SE 5.8 mph - N/A   Overcast
4:53 AM 25.0 °F 17.1 °F 18.0 °F 75% 30.42 in 8.0 mi SSE 6.9 mph - N/A   Overcast
5:53 AM 24.1 °F 17.0 °F 17.1 °F 75% 30.41 in 8.0 mi SSE 5.8 mph - N/A   Mostly Cloudy
6:53 AM 24.1 °F 16.0 °F 17.1 °F 75% 30.40 in 8.0 mi SE 6.9 mph - N/A   Mostly Cloudy
7:53 AM 24.1 °F 15.2 °F 16.0 °F 71% 30.39 in 9.0 mi SE 8.1 mph - N/A   Partly Cloudy
8:53 AM 25.0 °F 14.2 °F 16.0 °F 69% 30.38 in 7.0 mi SSE 11.5 mph - N/A   Partly Cloudy
9:53 AM 25.0 °F 15.5 °F 17.1 °F 72% 30.39 in 6.0 mi SSE 9.2 mph - N/A   Haze
10:53 AM 26.1 °F 15.6 °F 18.0 °F 71% 30.39 in 6.0 mi SE 11.5 mph - N/A   Haze
11:53 AM 27.0 °F 18.7 °F 19.0 °F 72% 30.40 in 5.0 mi SSE 8.1 mph - N/A   Haze
12:53 PM 28.0 °F 20.0 °F 19.0 °F 69% 30.35 in 6.0 mi ESE 8.1 mph - N/A   Haze
1:53 PM 28.9 °F 18.2 °F 19.9 °F 69% 30.28 in 6.0 mi ESE 13.8 mph - N/A   Haze
2:53 PM 30.0 °F 19.1 °F 19.9 °F 66% 30.25 in 6.0 mi SE 15.0 mph - N/A   Haze
3:53 PM 30.9 °F 22.2 °F 19.9 °F 64% 30.25 in 6.0 mi SE 10.4 mph - N/A   Haze
4:18 PM 30.2 °F 24.3 °F 21.2 °F 69% 30.22 in 2.0 mi SE 5.8 mph - 0.00 in Snow Light Snow
4:20 PM 30.2 °F 22.6 °F 21.2 °F 69% 30.22 in 1.5 mi SE 8.1 mph - 0.00 in Snow Light Snow
4:23 PM 30.2 °F 20.8 °F 21.2 °F 69% 30.22 in 0.8 mi SE 11.5 mph - 0.00 in Snow Light Snow
4:32 PM 28.4 °F 19.7 °F 24.8 °F 86% 30.20 in 0.2 mi East 9.2 mph - 0.01 in Snow Heavy Snow
4:41 PM 28.4 °F 18.5 °F 24.8 °F 86% 30.18 in 1.0 mi East 11.5 mph - 0.03 in Snow Light Snow
4:53 PM 28.9 °F 19.8 °F 25.0 °F 85% 30.21 in 1.0 mi East 10.4 mph - 0.04 in Snow Light Snow
5:00 PM 28.4 °F 19.7 °F 24.8 °F 86% 30.19 in 1.5 mi East 9.2 mph - 0.00 in Snow Light Snow
5:07 PM 28.4 °F 18.5 °F 24.8 °F 86% 30.20 in 3.0 mi ESE 11.5 mph - 0.00 in   Overcast
5:53 PM 30.9 °F 21.2 °F 24.1 °F 76% 30.19 in 3.0 mi SE 12.7 mph - 0.01 in Rain Light Freezing Rain
6:53 PM 30.9 °F 17.8 °F 27.0 °F 85% 30.09 in 2.0 mi SE 23.0 mph 31.1 mph 0.16 in Rain Light Freezing Rain
7:03 PM 30.2 °F 17.1 °F 26.6 °F 86% 30.04 in 3.0 mi SE 21.9 mph 33.4 mph 0.01 in Rain Light Freezing Rain
7:42 PM 32.0 °F 19.2 °F 26.6 °F 80% 30.04 in 6.0 mi SE 23.0 mph 35.7 mph 0.01 in   Overcast
7:53 PM 32.0 °F 19.8 °F 27.0 °F 82% 30.07 in 7.0 mi SE 20.7 mph 32.2 mph 0.01 in   Overcast
8:21 PM 32.0 °F 20.1 °F 26.6 °F 80% 30.03 in 6.0 mi SE 19.6 mph 28.8 mph N/A   Haze
8:53 PM 33.1 °F 22.2 °F 28.0 °F 82% 30.06 in 6.0 mi SSE 17.3 mph 24.2 mph N/A Thunderstorm Haze
9:22 PM 33.8 °F 22.2 °F 28.4 °F 81% 30.03 in 6.0 mi SSE 20.7 mph 27.6 mph N/A   Haze
9:35 PM 33.8 °F 23.2 °F 28.4 °F 81% 30.01 in 4.0 mi SE 17.3 mph 27.6 mph 0.01 in Rain Rain
9:45 PM 33.8 °F 23.5 °F 28.4 °F 81% 30.01 in 5.0 mi SSE 16.1 mph 26.5 mph 0.01 in Rain Light Rain
9:53 PM 33.1 °F 21.2 °F 28.9 °F 85% 30.04 in 4.0 mi SSE 20.7 mph 28.8 mph 0.02 in Rain Light Rain
10:05 PM 33.8 °F 23.2 °F 28.4 °F 81% 30.00 in 5.0 mi SSE 17.3 mph 31.1 mph 0.00 in Rain Light Freezing Rain
10:34 PM 33.8 °F 23.5 °F 30.2 °F 87% 29.99 in 4.0 mi SE 16.1 mph 23.0 mph 0.01 in Rain Light Rain
10:53 PM 34.0 °F 23.4 °F 30.0 °F 85% 30.01 in 5.0 mi SE 17.3 mph 25.3 mph 0.02 in   Overcast
11:05 PM 33.8 °F 24.8 °F 30.2 °F 87% 29.99 in 5.0 mi SSE 12.7 mph 23.0 mph 0.00 in   Overcast
11:53 PM 34.0 °F 24.2 °F 30.9 °F 89% 29.99 in 5.0 mi SSE 15.0 mph 25.3 mph 0.00 in   Overcast